Regional Weather Roundup
Issued by NWS Cleveland, OH

Home | Current Version | Previous Version | Graphics & Text | Print | Product List | Glossary On
Versions: 1 2 3 4 5 6 7 8 9 10 11 12 13 14 15 16 17 18 19 20 21 22 23 24 25 26 27 28 29 30 31 32 33 34 35 36 37 38 39 40 41 42 43 44 45 46 47 48 49 50
798
ASUS41 KCLE 192200
RWRCLE
OHIO REGIONAL WEATHER ROUNDUP
NATIONAL WEATHER SERVICE WILMINGTON, OH
500 PM EST MON FEB 19 2018

NOTE: "FAIR" INDICATES FEW OR NO CLOUDS BELOW 12,000 FEET WITH NO
SIGNIFICANT WEATHER AND/OR OBSTRUCTIONS TO VISIBILITY.

OHZ001>008-015>018-024>027-034-035-043-044-192300-
   NORTHWEST OHIO

CITY           SKY/WX    TMP DP  RH WIND       PRES   REMARKS
DEFIANCE       CLOUDY    59  55  87 SW13      29.94R
FINDLAY        LGT RAIN  62  56  80 S15       29.95F
TOLEDO EXPRESS CLOUDY    59  58  96 SW16G23   29.93R
TOLEDO EXEC    CLOUDY    58  56  93 SW16G26   29.95R
LIMA           CLOUDY    63  59  87 S16       29.97F
$$

OHZ009>014-019>023-028>033-038-089-192300-
   NORTHEAST OHIO

CITY           SKY/WX    TMP DP  RH WIND       PRES   REMARKS
CLE-HOPKINS    LGT RAIN  58  56  93 S14       30.04R
CLE-LAKEFRONT  LGT RAIN  59  55  87 S16G25    30.00S FOG
CUY CO. ARPT   LGT RAIN  59  57  94 SW12      30.03R
LORAIN-ELYRIA  LGT RAIN  54  50  86 S15       30.01S FOG
ASHTABULA      LGT RAIN  54  53  97 S14       30.04F
AKRON-CANTON   CLOUDY    58  54  86 S15       30.06F
WOOSTER        NOT AVBL
MANSFIELD      PTSUNNY   60  58  92 S12       30.03S
YOUNGSTOWN     LGT RAIN  54  53  97 SE9       30.06F FOG
$$

OHZ042-051>053-060>062-070>072-077>081-192300-
  SOUTHWEST OHIO

CITY           SKY/WX    TMP DP  RH WIND       PRES   REMARKS
CINC-COVINGTON CLOUDY    73  57  57 S14G23    30.03S
CINC-LUNKEN    PTSUNNY   73  58  59 SW16      30.04R
HAMILTON       CLOUDY    74  56  53 SW12G22   30.03S
DAYTON         NOT AVBL
WRIGHT-PAT AFB FAIR      72  56  56 S18       30.01F
DAYTON GENERAL PTSUNNY   72  56  57 SW16G25   30.02S
WILMINGTON     PTSUNNY   68  60  75 S13       30.04S
$$

OHZ036-037-039>041-045>050-054>059-063>069-073>076-082>088-192300-
  CENTRAL AND SOUTHEAST OHIO

CITY           SKY/WX    TMP DP  RH WIND       PRES   REMARKS
COLUMBUS       CLOUDY    67  59  75 S10       30.04S
OSU AIRPORT    FAIR      67  61  81 S9        30.03S
BOLTON FIELD   MOSUNNY   70  59  68 S16G22    30.05S
RICKENBACK AFB NOT AVBL
NEWARK         CLOUDY    66  57  72 S7        30.05F
MARION         PTSUNNY   62  58  86 S13       30.02S
LANCASTER      PTSUNNY   68  58  70 S9        30.07S
ZANESVILLE     FAIR      66  56  70 S10       30.08F
NEW PHILLY     FAIR      62  56  80 SE5       30.08F
$$




USA.gov is the U.S. government's official web portal to all federal, state and local government web resources and services.